Time,TemperatureF,DewpointF,PressureIn,WindDirection,WindDirectionDegrees,WindSpeedMPH,WindSpeedGustMPH,Humidity,HourlyPrecipIn,Conditions,Clouds,dailyrainin,SolarRadiationWatts/m^2,SoftwareType,DateUTC
2013-09-26 00:09:00,73.2,53.4,27.35,SE,141,4.0,4.0,50,0.00,,,0.00,0,Wunderground v.1.15,2013-09-26 06:09:00,
2013-09-26 00:20:00,73.4,53.1,27.32,SSE,163,4.0,4.0,49,0.00,,,0.00,0,Wunderground v.1.15,2013-09-26 06:20:00,
2013-09-26 00:29:00,73.5,53.2,27.29,SSE,160,3.0,3.0,49,0.00,,,0.00,0,Wunderground v.1.15,2013-09-26 06:29:00,
2013-09-26 00:39:00,73.6,52.7,27.33,SE,139,4.0,4.0,48,0.00,,,0.00,0,Wunderground v.1.15,2013-09-26 06:39:00,
2013-09-26 00:50:00,73.9,53.0,27.38,SSE,158,4.0,4.0,48,0.00,,,0.00,0,Wunderground v.1.15,2013-09-26 06:50:00,
2013-09-26 00:59:00,73.9,53.5,27.33,ESE,119,4.0,5.0,49,0.00,,,0.00,0,Wunderground v.1.15,2013-09-26 06:59:00,
2013-09-26 01:10:00,73.8,54.0,27.36,ESE,121,3.0,4.0,50,0.00,,,0.00,0,Wunderground v.1.15,2013-09-26 07:10:00,
2013-09-26 01:19:00,73.7,53.9,27.30,South,182,4.0,5.0,50,0.00,,,0.00,0,Wunderground v.1.15,2013-09-26 07:19:00,
2013-09-26 01:29:00,73.7,53.9,27.33,SE,140,3.0,5.0,50,0.00,,,0.00,0,Wunderground v.1.15,2013-09-26 07:29:00,
2013-09-26 01:40:00,73.6,53.8,27.37,South,170,3.0,4.0,50,0.00,,,0.00,0,Wunderground v.1.15,2013-09-26 07:40:00,
2013-09-26 01:49:00,73.5,53.7,27.33,South,182,4.0,4.0,50,0.00,,,0.00,0,Wunderground v.1.15,2013-09-26 07:49:00,
2013-09-26 02:00:00,73.1,53.9,27.36,SSE,161,3.0,4.0,51,0.00,,,0.00,0,Wunderground v.1.15,2013-09-26 08:00:00,
2013-09-26 02:09:00,72.6,54.0,27.39,SE,146,3.0,4.0,52,0.00,,,0.00,0,Wunderground v.1.15,2013-09-26 08:09:00,
2013-09-26 02:20:00,72.1,54.0,27.39,SSE,156,3.0,4.0,53,0.00,,,0.00,0,Wunderground v.1.15,2013-09-26 08:20:00,
2013-09-26 02:29:00,71.8,54.3,27.38,SSE,163,3.0,3.0,54,0.00,,,0.00,0,Wunderground v.1.15,2013-09-26 08:29:00,
2013-09-26 02:39:00,71.7,54.2,27.39,SSE,160,3.0,3.0,54,0.00,,,0.00,0,Wunderground v.1.15,2013-09-26 08:39:00,
2013-09-26 02:49:00,71.5,54.5,27.34,SSE,154,3.0,3.0,55,0.00,,,0.00,0,Wunderground v.1.15,2013-09-26 08:49:00,
2013-09-26 02:59:00,71.3,54.3,27.45,SSW,196,3.0,3.0,55,0.00,,,0.00,0,Wunderground v.1.15,2013-09-26 08:59:00,
2013-09-26 03:10:00,71.2,54.7,27.44,SSE,164,3.0,6.0,56,0.00,,,0.00,0,Wunderground v.1.15,2013-09-26 09:10:00,
2013-09-26 03:19:00,70.8,54.8,27.38,SSE,164,3.0,4.0,57,0.00,,,0.00,0,Wunderground v.1.15,2013-09-26 09:19:00,
2013-09-26 03:29:00,70.4,54.9,27.39,South,178,3.0,3.0,58,0.00,,,0.00,0,Wunderground v.1.15,2013-09-26 09:29:00,
2013-09-26 03:40:00,70.1,55.1,27.50,South,173,3.0,3.0,59,0.00,,,0.00,0,Wunderground v.1.15,2013-09-26 09:40:00,
2013-09-26 03:49:00,69.8,54.8,27.37,SSE,154,3.0,5.0,59,0.00,,,0.00,0,Wunderground v.1.15,2013-09-26 09:49:00,
2013-09-26 03:59:00,69.4,54.9,27.44,SSE,157,2.0,4.0,60,0.00,,,0.00,0,Wunderground v.1.15,2013-09-26 09:59:00,
2013-09-26 04:10:00,69.1,54.6,27.48,SSE,148,2.0,2.0,60,0.00,,,0.00,0,Wunderground v.1.15,2013-09-26 10:10:00,
2013-09-26 04:19:00,68.8,54.3,27.49,SSE,157,3.0,4.0,60,0.00,,,0.00,0,Wunderground v.1.15,2013-09-26 10:19:00,
2013-09-26 04:29:00,68.6,54.6,27.49,SSE,154,3.0,3.0,61,0.00,,,0.00,0,Wunderground v.1.15,2013-09-26 10:29:00,
2013-09-26 04:40:00,68.3,54.3,27.44,SE,141,3.0,3.0,61,0.00,,,0.00,0,Wunderground v.1.15,2013-09-26 10:40:00,
2013-09-26 04:49:00,68.0,54.5,27.35,SE,146,2.0,2.0,62,0.00,,,0.00,0,Wunderground v.1.15,2013-09-26 10:49:00,
2013-09-26 05:00:00,67.9,54.4,27.39,SE,138,3.0,3.0,62,0.00,,,0.00,0,Wunderground v.1.15,2013-09-26 11:00:00,
2013-09-26 05:09:00,67.8,54.3,27.34,SSE,153,2.0,2.0,62,0.00,,,0.00,0,Wunderground v.1.15,2013-09-26 11:09:00,
2013-09-26 05:19:00,67.6,54.1,27.36,SSE,148,2.0,2.0,62,0.00,,,0.00,0,Wunderground v.1.15,2013-09-26 11:19:00,
2013-09-26 05:29:00,67.5,54.0,27.32,South,169,2.0,4.0,62,0.00,,,0.00,0,Wunderground v.1.15,2013-09-26 11:29:00,
2013-09-26 05:39:00,67.5,54.0,27.37,SSE,153,2.0,2.0,62,0.00,,,0.00,0,Wunderground v.1.15,2013-09-26 11:39:00,
2013-09-26 05:49:00,67.5,54.0,27.38,SSE,156,2.0,3.0,62,0.00,,,0.00,0,Wunderground v.1.15,2013-09-26 11:49:00,
2013-09-26 05:59:00,67.7,53.8,27.40,SSE,148,3.0,4.0,61,0.00,,,0.00,0,Wunderground v.1.15,2013-09-26 11:59:00,
2013-09-26 06:09:00,67.8,53.9,27.38,SE,132,3.0,3.0,61,0.00,,,0.00,0,Wunderground v.1.15,2013-09-26 12:09:00,
2013-09-26 06:19:00,67.8,53.9,27.47,SSE,153,3.0,3.0,61,0.00,,,0.00,5,Wunderground v.1.15,2013-09-26 12:19:00,
2013-09-26 06:29:00,67.9,54.0,27.44,SSE,154,3.0,5.0,61,0.00,,,0.00,12,Wunderground v.1.15,2013-09-26 12:29:00,
2013-09-26 06:39:00,68.0,53.6,27.36,SSE,161,3.0,4.0,60,0.00,,,0.00,18,Wunderground v.1.15,2013-09-26 12:39:00,
2013-09-26 06:49:00,68.4,54.0,27.36,SE,136,4.0,4.0,60,0.00,,,0.00,25,Wunderground v.1.15,2013-09-26 12:49:00,
2013-09-26 06:59:00,68.8,54.3,27.40,SSE,155,3.0,6.0,60,0.00,,,0.00,28,Wunderground v.1.15,2013-09-26 12:59:00,
2013-09-26 07:09:00,69.4,54.4,27.41,SE,126,3.0,5.0,59,0.00,,,0.00,49,Wunderground v.1.15,2013-09-26 13:09:00,
2013-09-26 07:20:00,70.2,54.7,27.46,SE,133,4.0,4.0,58,0.00,,,0.00,53,Wunderground v.1.15,2013-09-26 13:20:00,
2013-09-26 07:29:00,71.0,55.0,27.43,SSE,149,4.0,4.0,57,0.00,,,0.00,77,Wunderground v.1.15,2013-09-26 13:29:00,
2013-09-26 07:40:00,72.2,55.6,27.41,South,176,4.0,4.0,56,0.00,,,0.00,72,Wunderground v.1.15,2013-09-26 13:40:00,
2013-09-26 07:49:00,73.5,55.8,27.40,SSE,160,3.0,3.0,54,0.00,,,0.00,132,Wunderground v.1.15,2013-09-26 13:49:00,
2013-09-26 08:00:00,74.6,56.3,27.47,SE,132,4.0,5.0,53,0.00,,,0.00,227,Wunderground v.1.15,2013-09-26 14:00:00,
2013-09-26 08:09:00,75.7,56.8,27.42,SSE,159,4.0,4.0,52,0.00,,,0.00,339,Wunderground v.1.15,2013-09-26 14:09:00,
2013-09-26 08:19:00,77.0,57.5,27.36,South,171,4.0,4.0,51,0.00,,,0.00,378,Wunderground v.1.15,2013-09-26 14:19:00,
2013-09-26 08:29:00,78.1,57.4,27.40,SSE,153,3.0,3.0,49,0.00,,,0.00,413,Wunderground v.1.15,2013-09-26 14:29:00,
2013-09-26 08:39:00,79.4,58.0,27.54,SSE,159,3.0,3.0,48,0.00,,,0.00,446,Wunderground v.1.15,2013-09-26 14:39:00,
2013-09-26 08:49:00,80.9,58.8,27.49,SSE,155,3.0,3.0,47,0.00,,,0.00,483,Wunderground v.1.15,2013-09-26 14:49:00,
2013-09-26 08:59:00,82.0,58.6,27.49,SSE,159,2.0,3.0,45,0.00,,,0.00,513,Wunderground v.1.15,2013-09-26 14:59:00,
2013-09-26 09:09:00,82.8,59.3,27.54,SSE,165,3.0,3.0,45,0.00,,,0.00,547,Wunderground v.1.15,2013-09-26 15:09:00,
2013-09-26 09:19:00,84.1,59.8,27.53,South,175,2.0,2.0,44,0.00,,,0.00,578,Wunderground v.1.15,2013-09-26 15:19:00,
2013-09-26 09:29:00,84.5,59.5,27.49,SSW,205,3.0,3.0,43,0.00,,,0.00,605,Wunderground v.1.15,2013-09-26 15:29:00,
2013-09-26 09:39:00,85.0,60.0,27.43,WSW,243,4.0,4.0,43,0.00,,,0.00,636,Wunderground v.1.15,2013-09-26 15:39:00,
2013-09-26 09:49:00,85.7,60.0,27.53,SSW,208,4.0,6.0,42,0.00,,,0.00,666,Wunderground v.1.15,2013-09-26 15:49:00,
2013-09-26 09:59:00,85.9,60.1,27.53,SW,227,6.0,6.0,42,0.00,,,0.00,689,Wunderground v.1.15,2013-09-26 15:59:00,
2013-09-26 10:09:00,87.3,60.7,27.49,SW,236,4.0,4.0,41,0.00,,,0.00,715,Wunderground v.1.15,2013-09-26 16:09:00,
2013-09-26 10:19:00,87.8,61.2,27.46,WSW,243,4.0,7.0,41,0.00,,,0.00,737,Wunderground v.1.15,2013-09-26 16:19:00,
2013-09-26 10:29:00,88.2,59.4,27.52,SW,219,6.0,6.0,38,0.00,,,0.00,761,Wunderground v.1.15,2013-09-26 16:29:00,
2013-09-26 10:39:00,88.4,59.6,27.50,WSW,242,7.0,7.0,38,0.00,,,0.00,779,Wunderground v.1.15,2013-09-26 16:39:00,
2013-09-26 10:49:00,89.2,59.5,27.56,SW,220,6.0,6.0,37,0.00,,,0.00,795,Wunderground v.1.15,2013-09-26 16:49:00,
2013-09-26 10:59:00,90.0,61.7,27.51,SSE,159,6.0,6.0,39,0.00,,,0.00,812,Wunderground v.1.15,2013-09-26 16:59:00,
2013-09-26 11:09:00,91.0,60.3,27.49,South,173,5.0,6.0,36,0.00,,,0.00,824,Wunderground v.1.15,2013-09-26 17:09:00,
2013-09-26 11:19:00,91.1,59.6,27.54,South,175,5.0,12.0,35,0.00,,,0.00,838,Wunderground v.1.15,2013-09-26 17:19:00,
2013-09-26 11:29:00,91.3,59.8,27.50,SSW,208,5.0,10.0,35,0.00,,,0.00,847,Wunderground v.1.15,2013-09-26 17:29:00,
2013-09-26 11:39:00,91.6,60.1,27.48,SSW,201,7.0,7.0,35,0.00,,,0.00,856,Wunderground v.1.15,2013-09-26 17:39:00,
2013-09-26 11:49:00,92.0,58.8,27.48,SW,216,7.0,7.0,33,0.00,,,0.00,863,Wunderground v.1.15,2013-09-26 17:49:00,
2013-09-26 11:59:00,92.3,59.0,27.49,SW,215,7.0,10.0,33,0.00,,,0.00,868,Wunderground v.1.15,2013-09-26 17:59:00,
2013-09-26 12:09:00,92.4,59.1,27.46,SW,227,7.0,9.0,33,0.00,,,0.00,868,Wunderground v.1.15,2013-09-26 18:09:00,
2013-09-26 12:19:00,92.5,58.4,27.43,South,170,8.0,8.0,32,0.00,,,0.00,870,Wunderground v.1.15,2013-09-26 18:19:00,
2013-09-26 12:29:00,92.7,57.6,27.51,SSE,163,7.0,7.0,31,0.00,,,0.00,870,Wunderground v.1.15,2013-09-26 18:29:00,
2013-09-26 12:39:00,93.4,59.1,27.49,South,170,7.0,7.0,32,0.00,,,0.00,867,Wunderground v.1.15,2013-09-26 18:39:00,
2013-09-26 12:49:00,94.0,57.8,27.49,SE,142,6.0,6.0,30,0.00,,,0.00,865,Wunderground v.1.15,2013-09-26 18:49:00,
2013-09-26 13:00:00,93.9,57.8,27.49,SSE,157,6.0,6.0,30,0.00,,,0.00,856,Wunderground v.1.15,2013-09-26 19:00:00,
2013-09-26 13:09:00,93.8,58.6,27.52,SSE,165,6.0,7.0,31,0.00,,,0.00,846,Wunderground v.1.15,2013-09-26 19:09:00,
2013-09-26 13:19:00,93.7,58.5,27.49,SE,143,7.0,7.0,31,0.00,,,0.00,842,Wunderground v.1.15,2013-09-26 19:19:00,
2013-09-26 13:29:00,93.4,58.2,27.49,South,180,7.0,7.0,31,0.00,,,0.00,824,Wunderground v.1.15,2013-09-26 19:29:00,
2013-09-26 13:39:00,93.6,59.3,27.50,South,169,7.0,7.0,32,0.00,,,0.00,812,Wunderground v.1.15,2013-09-26 19:39:00,
2013-09-26 13:49:00,94.0,58.8,27.50,SSE,154,6.0,6.0,31,0.00,,,0.00,789,Wunderground v.1.15,2013-09-26 19:49:00,
2013-09-26 13:59:00,94.5,59.2,27.46,SSW,205,5.0,7.0,31,0.00,,,0.00,780,Wunderground v.1.15,2013-09-26 19:59:00,
2013-09-26 14:09:00,94.4,59.1,27.48,SSE,153,6.0,6.0,31,0.00,,,0.00,754,Wunderground v.1.15,2013-09-26 20:09:00,
2013-09-26 14:19:00,94.6,59.3,27.51,South,182,6.0,6.0,31,0.00,,,0.00,733,Wunderground v.1.15,2013-09-26 20:19:00,
2013-09-26 14:29:00,95.4,59.1,27.44,SE,144,5.0,5.0,30,0.00,,,0.00,707,Wunderground v.1.15,2013-09-26 20:29:00,
2013-09-26 14:39:00,95.7,58.4,27.42,SSE,156,5.0,7.0,29,0.00,,,0.00,668,Wunderground v.1.15,2013-09-26 20:39:00,
2013-09-26 14:50:00,95.0,57.8,27.41,SSW,200,6.0,13.0,29,0.00,,,0.00,664,Wunderground v.1.15,2013-09-26 20:50:00,
2013-09-26 14:59:00,95.4,58.1,27.40,South,170,6.0,7.0,29,0.00,,,0.00,626,Wunderground v.1.15,2013-09-26 20:59:00,
2013-09-26 15:09:00,94.9,56.7,27.48,SSW,213,6.0,9.0,28,0.00,,,0.00,603,Wunderground v.1.15,2013-09-26 21:09:00,
2013-09-26 15:19:00,95.1,56.9,27.48,SSE,154,7.0,13.0,28,0.00,,,0.00,577,Wunderground v.1.15,2013-09-26 21:19:00,
2013-09-26 15:29:00,94.6,57.4,27.52,SSW,201,6.0,8.0,29,0.00,,,0.00,534,Wunderground v.1.15,2013-09-26 21:29:00,
2013-09-26 15:39:00,94.2,56.1,27.45,SE,136,8.0,8.0,28,0.00,,,0.00,503,Wunderground v.1.15,2013-09-26 21:39:00,
2013-09-26 15:49:00,93.8,55.8,27.42,SE,135,7.0,7.0,28,0.00,,,0.00,88,Wunderground v.1.15,2013-09-26 21:49:00,
2013-09-26 15:59:00,93.6,55.6,27.44,SSE,163,5.0,7.0,28,0.00,,,0.00,54,Wunderground v.1.15,2013-09-26 21:59:00,
2013-09-26 16:09:00,93.2,56.2,27.46,SE,141,6.0,6.0,29,0.00,,,0.00,51,Wunderground v.1.15,2013-09-26 22:09:00,
2013-09-26 16:20:00,92.8,55.9,27.46,South,184,7.0,7.0,29,0.00,,,0.00,53,Wunderground v.1.15,2013-09-26 22:20:00,
2013-09-26 16:29:00,92.6,55.7,27.45,South,170,6.0,6.0,29,0.00,,,0.00,47,Wunderground v.1.15,2013-09-26 22:29:00,
2013-09-26 16:39:00,92.1,56.2,27.41,SSE,165,6.0,6.0,30,0.00,,,0.00,51,Wunderground v.1.15,2013-09-26 22:39:00,
2013-09-26 16:50:00,91.7,55.9,27.42,SE,146,6.0,6.0,30,0.00,,,0.00,42,Wunderground v.1.15,2013-09-26 22:50:00,
2013-09-26 16:59:00,91.5,54.8,27.41,SSE,167,5.0,5.0,29,0.00,,,0.00,40,Wunderground v.1.15,2013-09-26 22:59:00,
2013-09-26 17:09:00,91.1,55.3,27.42,SE,132,5.0,5.0,30,0.00,,,0.00,37,Wunderground v.1.15,2013-09-26 23:09:00,
2013-09-26 17:19:00,90.6,55.8,27.42,SE,132,6.0,6.0,31,0.00,,,0.00,33,Wunderground v.1.15,2013-09-26 23:19:00,
2013-09-26 17:29:00,90.3,55.6,27.43,SSE,158,5.0,5.0,31,0.00,,,0.00,32,Wunderground v.1.15,2013-09-26 23:29:00,
2013-09-26 17:40:00,89.9,56.9,27.38,SSE,151,4.0,6.0,33,0.00,,,0.00,26,Wunderground v.1.15,2013-09-26 23:40:00,
2013-09-26 17:49:00,89.3,57.3,27.38,East,88,4.0,4.0,34,0.00,,,0.00,21,Wunderground v.1.15,2013-09-26 23:49:00,
2013-09-26 18:00:00,88.7,56.7,27.35,SE,133,4.0,5.0,34,0.00,,,0.00,14,Wunderground v.1.15,2013-09-27 00:00:00,
2013-09-26 18:19:00,87.2,57.0,27.34,SE,144,3.0,5.0,36,0.00,,,0.00,0,Wunderground v.1.15,2013-09-27 00:19:00,
2013-09-26 18:29:00,86.5,57.9,27.36,SE,129,4.0,4.0,38,0.00,,,0.00,0,Wunderground v.1.15,2013-09-27 00:29:00,
2013-09-26 18:40:00,85.9,58.1,27.38,South,179,3.0,3.0,39,0.00,,,0.00,0,Wunderground v.1.15,2013-09-27 00:40:00,
2013-09-26 18:49:00,85.2,58.2,27.42,SSW,204,3.0,3.0,40,0.00,,,0.00,0,Wunderground v.1.15,2013-09-27 00:49:00,
2013-09-26 18:59:00,84.7,58.4,27.45,SE,145,3.0,3.0,41,0.00,,,0.00,0,Wunderground v.1.15,2013-09-27 00:59:00,
2013-09-26 19:09:00,84.0,58.4,27.45,ESE,119,4.0,4.0,42,0.00,,,0.00,0,Wunderground v.1.15,2013-09-27 01:09:00,
2013-09-26 19:20:00,83.7,58.2,27.44,ESE,123,3.0,3.0,42,0.00,,,0.00,0,Wunderground v.1.15,2013-09-27 01:20:00,
2013-09-26 19:29:00,83.2,58.4,27.47,ESE,103,3.0,7.0,43,0.00,,,0.00,0,Wunderground v.1.15,2013-09-27 01:29:00,
2013-09-26 19:39:00,82.8,58.7,27.48,ESE,121,4.0,4.0,44,0.00,,,0.00,0,Wunderground v.1.15,2013-09-27 01:39:00,
2013-09-26 19:50:00,82.2,59.4,27.48,East,101,4.0,4.0,46,0.00,,,0.00,0,Wunderground v.1.15,2013-09-27 01:50:00,
2013-09-26 19:59:00,81.7,58.9,27.45,SSE,150,4.0,4.0,46,0.00,,,0.00,0,Wunderground v.1.15,2013-09-27 01:59:00,
2013-09-26 20:09:00,81.2,59.1,27.47,SSE,154,4.0,4.0,47,0.00,,,0.00,0,Wunderground v.1.15,2013-09-27 02:09:00,
2013-09-26 20:19:00,80.9,59.4,27.48,SE,130,4.0,4.0,48,0.00,,,0.00,0,Wunderground v.1.15,2013-09-27 02:19:00,
2013-09-26 20:29:00,80.6,59.7,27.45,SSE,148,4.0,4.0,49,0.00,,,0.00,0,Wunderground v.1.15,2013-09-27 02:29:00,
2013-09-26 20:39:00,80.4,59.5,27.54,SE,144,3.0,4.0,49,0.00,,,0.00,0,Wunderground v.1.15,2013-09-27 02:39:00,
2013-09-26 20:49:00,80.4,59.5,27.54,SSE,148,4.0,4.0,49,0.00,,,0.00,0,Wunderground v.1.15,2013-09-27 02:49:00,
2013-09-26 20:59:00,80.2,59.9,27.53,ESE,105,3.0,3.0,50,0.00,,,0.00,0,Wunderground v.1.15,2013-09-27 02:59:00,
2013-09-26 21:09:00,80.1,59.8,27.53,SSE,150,3.0,3.0,50,0.00,,,0.00,0,Wunderground v.1.15,2013-09-27 03:09:00,
2013-09-26 21:19:00,79.9,59.6,27.49,South,177,3.0,5.0,50,0.00,,,0.00,0,Wunderground v.1.15,2013-09-27 03:19:00,
2013-09-26 21:29:00,79.5,59.8,27.50,SSE,161,4.0,4.0,51,0.00,,,0.00,0,Wunderground v.1.15,2013-09-27 03:29:00,
2013-09-26 21:38:00,79.3,59.6,27.53,South,181,3.0,3.0,51,0.00,,,0.00,0,Wunderground v.1.15,2013-09-27 03:38:00,
2013-09-26 21:48:00,79.0,59.9,27.53,SE,130,4.0,4.0,52,0.00,,,0.00,0,Wunderground v.1.15,2013-09-27 03:48:00,
2013-09-26 21:58:00,78.6,60.0,27.50,SSE,165,3.0,5.0,53,0.00,,,0.00,0,Wunderground v.1.15,2013-09-27 03:58:00,
2013-09-26 22:08:00,78.6,60.0,27.45,South,175,4.0,4.0,53,0.00,,,0.00,0,Wunderground v.1.15,2013-09-27 04:08:00,
2013-09-26 22:19:00,78.4,60.4,27.57,SSE,154,4.0,4.0,54,0.00,,,0.00,0,Wunderground v.1.15,2013-09-27 04:19:00,
2013-09-26 22:29:00,78.2,60.2,27.53,ESE,107,4.0,4.0,54,0.00,,,0.00,0,Wunderground v.1.15,2013-09-27 04:29:00,
2013-09-26 22:39:00,78.1,60.6,27.56,South,178,4.0,4.0,55,0.00,,,0.00,0,Wunderground v.1.15,2013-09-27 04:39:00,
2013-09-26 22:49:00,77.9,60.9,27.54,SSE,151,4.0,4.0,56,0.00,,,0.00,0,Wunderground v.1.15,2013-09-27 04:49:00,
2013-09-26 22:59:00,77.8,60.8,27.43,SE,146,4.0,4.0,56,0.00,,,0.00,0,Wunderground v.1.15,2013-09-27 04:59:00,
2013-09-26 23:09:00,77.5,60.6,27.50,SE,138,4.0,4.0,56,0.00,,,0.00,0,Wunderground v.1.15,2013-09-27 05:09:00,
2013-09-26 23:19:00,77.3,60.9,27.49,SSE,156,4.0,4.0,57,0.00,,,0.00,0,Wunderground v.1.15,2013-09-27 05:19:00,
2013-09-26 23:29:00,76.9,61.0,27.49,SSE,163,3.0,3.0,58,0.00,,,0.00,0,Wunderground v.1.15,2013-09-27 05:29:00,
2013-09-26 23:38:00,76.7,60.8,27.54,SE,142,4.0,7.0,58,0.00,,,0.00,0,Wunderground v.1.15,2013-09-27 05:38:00,
2013-09-26 23:48:00,76.5,60.6,27.51,South,180,4.0,4.0,58,0.00,,,0.00,0,Wunderground v.1.15,2013-09-27 05:48:00,
2013-09-26 23:58:00,76.3,60.9,27.43,SSE,153,4.0,5.0,59,0.00,,,0.00,0,Wunderground v.1.15,2013-09-27 05:58:00,